Flag for Russia Weather past 2 weeks in Surgut, Russia

16 °F

Passing clouds.

Feels Like: 10 °F
Forecast: 10 / 29 °F
Wind: 3 mph from West

Location: Surgut Airport

Current Time: Nov 30, 2015 at 4:09:13 AM

Latest Report: Nov 30, 2015 at 3:30 AM

Visibility: 4 mi

Pressure: 29.86 "Hg

Humidity: 93%

Dew point: 14 °F

Location of SurgutLocation

Historic Weather in Surgut — Graph


Surgut temperature yesterday

Maximum temperature yesterday: 23 °F (at 7:00 PM)
Minimum temperature yesterday: 10 °F (at 9:00 AM)
Average temperature yesterday: 17 °F

Past Weeks' High & Low Weather Summary

High23 °F (Nov 26, 3:00 AM)100% (Nov 28, 12:30 PM)30.95 "Hg (Nov 28, 12:30 PM)
Low-17 °F (Nov 21, 1:30 AM)76% (Nov 16, 3:00 AM)29.21 "Hg (Nov 28, 10:30 PM)
Average4 °F84%30.32 "Hg
* Reported Nov 15 3:00 AM — Nov 30 3:00 AM, Surgut, Weather by CustomWeather, © 2015

Note: Actual official high and low records may vary slightly from our data, if they occured in-between our weather recording intervals... More about our weather records


Surgut weather history for previous 24 hours

Time TempWeatherWind HumidityBarometerVisibility
3:00 AM
Mon, Nov 30
16 °FPassing clouds.3 mph93%29.83 "Hg4 mi
2:30 AM18 °FPassing clouds.6 mph86%29.83 "Hg4 mi
2:00 AM16 °FPassing clouds.6 mph93%29.83 "Hg4 mi
1:30 AM16 °FPassing clouds.6 mph93%29.80 "Hg4 mi
1:00 AM14 °FPassing clouds.8 mph85%29.80 "Hg4 mi
12:30 AM14 °FClear.8 mph92%29.80 "Hg4 mi
12:00 AM12 °FClear.8 mph92%29.80 "Hg4 mi
11:30 PM
Sun, Nov 29
14 °FPassing clouds.8 mph92%29.77 "Hg4 mi
11:00 PM18 °FPassing clouds.10 mph93%29.74 "Hg4 mi
10:30 PM19 °FPassing clouds.10 mph93%29.74 "Hg4 mi
10:00 PM19 °FOvercast.13 mph93%29.74 "Hg4 mi
9:30 PM21 °FMostly cloudy.13 mph86%29.71 "Hg4 mi
9:00 PM21 °FMostly cloudy.15 mph93%29.71 "Hg4 mi
8:30 PM23 °FMostly cloudy.13 mph93%29.68 "Hg4 mi
8:00 PM23 °FMostly cloudy.10 mph93%29.68 "Hg4 mi
7:30 PM23 °FMostly cloudy.8 mph93%29.65 "Hg4 mi
7:00 PM23 °FMostly cloudy.10 mph86%29.65 "Hg4 mi
6:30 PM21 °FMostly cloudy.10 mph93%29.62 "Hg4 mi
6:00 PM21 °FMostly cloudy.10 mph93%29.62 "Hg4 mi
5:30 PM19 °FMostly cloudy.10 mph93%29.59 "Hg4 mi
5:00 PM19 °FMostly cloudy.10 mph93%29.59 "Hg4 mi
4:30 PM18 °FMostly cloudy.8 mph93%29.56 "Hg4 mi
4:00 PM18 °FMostly cloudy.10 mph86%29.56 "Hg4 mi
3:30 PM16 °FLow clouds.8 mph93%29.53 "Hg4 mi
2:30 PM16 °FSnow flurries. Broken clouds.10 mph86%29.50 "Hg4 mi
2:00 PM14 °FSnow flurries. Scattered clouds.13 mph85%29.50 "Hg4 mi
1:30 PM12 °FScattered clouds.8 mph92%29.47 "Hg4 mi
1:00 PM12 °FScattered clouds.8 mph85%29.45 "Hg4 mi
11:30 AM12 °FScattered clouds.8 mph85%29.42 "Hg4 mi
11:00 AM10 °FScattered clouds.8 mph92%29.39 "Hg4 mi
10:00 AM10 °FLight snow. Partly sunny.10 mph85%29.36 "Hg3 mi
9:30 AM10 °FLight snow. Low clouds.10 mph85%29.36 "Hg2 mi
9:00 AM10 °FLight snow. Low clouds.10 mph92%29.33 "Hg3 mi
8:30 AM12 °FLow clouds.13 mph85%29.33 "Hg4 mi
8:00 AM14 °FLow clouds.13 mph92%29.33 "Hg4 mi
7:30 AM14 °FPartly cloudy.13 mph92%29.30 "Hg4 mi
7:00 AM14 °FPartly cloudy.8 mph92%29.30 "Hg4 mi
6:30 AM14 °FPartly cloudy.6 mph92%29.30 "Hg4 mi
6:00 AM14 °FPassing clouds.8 mph92%29.27 "Hg4 mi
5:30 AM14 °FPassing clouds.8 mph92%29.27 "Hg4 mi
5:00 AM16 °FPartly cloudy.10 mph93%29.27 "Hg4 mi
4:30 AM18 °FClear.6 mph93%29.27 "Hg4 mi
4:00 AM19 °FPassing clouds.6 mph93%29.24 "Hg4 mi
Weather by CustomWeather, © 2015

See weather overviewHow to use our weather pages